Погода в Ораниенбурге

Германия     52°45′13″N   13°14′10″E
темп.,
°C
ветер,
м/с
пор.,
м/с
влажн.,
%
обл.,
%
осадки,
мм/ч
давл.,
гПа
погр.,
м
6 марта, сб
сб601:00−1з23670 0.0 103167
04:00−2з25760 0.0 1030142
07:00−2зюз38910 0.0 1031253
10:00+2з47680 0.0 1030722
13:00+5зсз576617 0.0 10301073
16:00+5з4768100 0.1 10291046
19:00+2з4119091 0.1 1028455
22:00+1з4119254 0.0 1028408
7 марта, вс
вс701:00−1з4109327 0.0 1027443
04:00−1з4109219 0.0 1025590
07:000з598551 0.0 1024864
10:00+2з5873100 0.1 10231039
13:00+3з6968100 0.1 10221059
16:00+3зсз5869100 0.0 10191097
19:00+2з4990100 0.0 1019654
22:00+1зсз4109698 0.0 1019554
8 марта, пн
пн801:00+1зсз388998 0.1 1019490
04:00+1сз269097 0.0 1019353
07:00−2ссв229376 0.1 102133
10:00+3св225425 0.0 1022615
13:00+6ссв114021 0.0 10221409
16:00+5с11380 0.0 10211502
19:00+1всв22554 0.0 102226
22:00−1в377053 0.0 1022167
9 марта, вт
вт901:00−1вюв267268 0.0 1022194
04:00−1юв246994 0.0 1020139
07:000юв256796 0.0 1020205
10:00+3ююв3567100 0.0 1020646
13:00+4ю3576100 0.0 1020648
16:00+3ю249499 0.1 1018294
19:00+2юв239899 0.3 1019127
22:00+3ююв2497100 0.1 1019173
10 марта, ср
ср1001:00+3ююв2398100 0.8 1019146
04:00+3юз249899 0.3 1018161
07:00+3юз269698 0.5 1018181
10:00+5юз3686100 0.1 1018403
13:00+8юз5765100 0.2 10161284
16:00+8ююз5968100 0.1 10141287
19:00+7ююз41174100 0.1 1012901
22:00+6ююз61388100 1.1 1009800